Погода в Мирошкином

Россия / Оренбургская область     51°59′24″N   52°03′07″E
темп.,
°C
ветер,
м/с
пор.,
м/с
влажн.,
%
обл.,
%
осадки,
мм/ч
давл.,
гПа
погр.,
м
24 января, пн
пн2423:00−11вюв51191100 0.0 1033222
02:00−13вюв3992100 0.0 1034151
05:00−12вюв51089100 0.0 1034218
08:00−13вюв51090100 0.0 1034192
11:00−14в51090100 0.0 1036197
14:00−12вюв41087100 0.0 1035236
17:00−12в2589100 0.0 103590
20:00−14в3791100 0.0 1036103
25 января, вт
вт2523:00−14вюв4990100 0.0 1035134
02:00−15вюв4890100 0.0 1035126
05:00−16вюв3790100 0.0 1034102
08:00−16вюв389299 0.0 1033103
11:00−15юв4993100 0.0 1033147
14:00−12юв4993100 0.0 1031189
17:00−12вюв4994100 0.0 1030148
20:00−13юв4995100 0.0 1029132
26 января, ср
ср2623:00−13юв41096100 0.0 1028140
02:00−12юв4997100 0.0 1027165
05:00−11юв51097100 0.1 1025177
08:00−9юв51095100 0.1 1023241
11:00−8юв5995100 0.7 1022252
14:00−6ююв51095100 1.4 1021383
17:00−4ю4996100 1.7 1021390
20:00−6ююз499798 0.3 1022267
27 января, чт
чт2723:00−9ююз369781 0.4 1023111
02:00−14ююз22100100 0.1 102420
05:00−10ююз12100100 0.1 102479
08:00−9юв11100100 0.1 102453
11:00−8юв2299100 0.1 1024173
14:00−8всв119792 0.0 102348
17:00−10св2297100 0.0 102321
20:00−10св3398100 0.0 102248
28 января, пт
пт2823:00−6всв3597100 0.5 1020177
02:00−6св359699 0.3 1019110
05:00−7всв3694100 0.3 1018119
08:00−8всв3593100 0.0 101792
11:00−8всв3692100 0.0 1017132
14:00−6в3690100 0.0 1016228
17:00−7в249398 0.0 1016107
20:00−10в2496100 0.0 101669